Content
SEND FEEDBACK

Daily
Averages
Monthly
Summary
United States of America

WILMINGTON, NORTH CAROLINA


Home > North America > United States > North Carolina
Elevation: 72 feet     Latitude: 34 16N     Longitude: 077 54W

WEATHER
 
SELECT A DAY
Number of Records: 208,565;   Date Range: 1/1/95 - 7/7/14
 
SHARE

PRINT THIS DATA

[ ← Previous Day ]
WEATHER ALMANAC - JANUARY 27, 2013
[ Next Day → ]
[ °C ]   °F
Weather ElementAverageHighLow
Temperature34.4 °F46.9 °F (1:53 pm)26.6 °F (3:37 am)
Dewpoint25.8 °F28.9 °F (9:53 am)23 °F (11:53 am)
Humidity73.5 %93 % (3:37 am)42 % (1:53 pm)
Barometer30.50 in30.56 in (9:53 am)30.41 in (1:53 am)
Wind Speed6.7 mph12.7 mph (9:53 am)
Wind Gust20.7 mph (10:53 am)
Weather ElementAverage
Visibility7.9 mi
Wind DirectionENE (55 °)

Weather ElementTotal
Precipitation---
Heating Degree Days28.3 (Base 65)
Averaged from 26 records on January 27, 2013
WEATHER CONDITIONS BREAKOUT
WIND DIRECTION BREAKOUT
WEATHER BY HOUR - JANUARY 27, 2013
[ °C ]   °F
Local TimeTemperatureDewpointHumidityBarometerVisibilityWind DirectionWind SpeedGust SpeedPrecipitationEventsConditions
1:53 AM28.0 °F26.1 °F92 %30.41 in5.0 miNorth (360°)4.6 mphClear
2:53 AM28.0 °F26.1 °F92 %30.42 in4.0 miNNE (20°)5.8 mphClear
3:37 AM26.6 °F24.8 °F93 %30.44 in5.0 miNNE (30°)9.2 mphScattered Clouds
3:53 AM27.0 °F25.0 °F92 %30.44 in4.0 miNNE (30°)6.9 mphMostly Cloudy
4:53 AM28.0 °F26.1 °F92 %30.45 in5.0 miNE (40°)9.2 mphMostly Cloudy
5:03 AM28.4 °F26.6 °F93 %30.45 in5.0 miNNE (30°)5.8 mphMostly Cloudy
5:21 AM28.4 °F24.8 °F86 %30.45 in6.0 miNNE (20°)4.6 mphScattered Clouds
5:53 AM27.0 °F25.0 °F92 %30.45 in6.0 miNNE (20°)4.6 mphClear
6:53 AM27.0 °F24.1 °F89 %30.48 in6.0 miNNE (20°)6.9 mphClear
7:53 AM28.0 °F25.0 °F88 %30.51 in5.0 miNNE (20°)9.2 mphPartly Cloudy
8:53 AM30.9 °F27.0 °F85 %30.54 in6.0 miNNE (20°)10.4 mphClear
9:53 AM36.0 °F28.9 °F76 %30.56 in9.0 miNE (40°)12.7 mphClear
10:53 AM41.0 °F27.0 °F57 %30.56 in10.0 miNE (40°)12.7 mph20.7 mphClear
11:53 AM44.1 °F23.0 °F43 %30.55 in10.0 miENE (60°)12.7 mphClear
12:53 PM45.0 °F24.1 °F44 %30.53 in10.0 miNorth (10°)9.2 mphClear
1:53 PM46.9 °F25.0 °F42 %30.51 in10.0 miVariable3.5 mphClear
2:53 PM45.0 °F25.0 °F46 %30.51 in10.0 miESE (120°)4.6 mphClear
3:53 PM44.1 °F26.1 °F49 %30.52 in10.0 miSE (130°)8.1 mphClear
4:53 PM43.0 °F27.0 °F53 %30.53 in10.0 miESE (110°)8.1 mphClear
5:53 PM41.0 °F27.0 °F57 %30.53 in10.0 miEast (100°)4.6 mphClear
6:53 PM37.0 °F28.0 °F70 %30.55 in10.0 miCalmClear
7:53 PM34.0 °F27.0 °F75 %30.54 in10.0 miENE (60°)3.5 mphClear
8:53 PM33.1 °F26.1 °F75 %30.53 in10.0 miNNE (30°)3.5 mphClear
9:53 PM32.0 °F26.1 °F79 %30.53 in10.0 miNE (40°)6.9 mphClear
10:53 PM33.1 °F26.1 °F75 %30.51 in10.0 miNE (50°)4.6 mphClear
11:53 PM32.0 °F25.0 °F75 %30.52 in10.0 miNNE (30°)3.5 mphClear
Hourly data recorded from KILM, located miles away from Wilmington, North Carolina







STORIES FROM OUR PARTNERS